Flag for Germany Weather past 2 weeks in Hürth, North Rhine-Westphalia, Germany

Now
39 °F

Scattered clouds.


Feels Like: 32 °F
Forecast: 30 / 35 °F
Wind: 10 mph from Southwest

Location: Noervenich

Current Time: Dec 26, 2014 at 12:32:04 PM

Latest Report: Dec 26, 2014 at 11:20 AM


Visibility: N/A

Pressure: 30.39 "Hg

Humidity: 93%

Dew point: 37 °F

Location of HürthLocation

Historic Weather in Hürth — Graph

°F

Hürth temperature yesterday

Maximum temperature yesterday: 43 °F (at 11:20 AM)
Minimum temperature yesterday: 36 °F (at 3:20 PM)
Average temperature yesterday: 40 °F

Past Weeks' High & Low Weather Summary

 TemperatureHumidityPressure
High55 °F (Dec 18, 3:20 PM)100% (Dec 13, 2:20 AM)30.42 "Hg (Dec 13, 2:20 AM)
Low32 °F (Dec 14, 4:20 AM)67% (Dec 12, 10:20 AM)29.45 "Hg (Dec 12, 2:04 PM)
Average44 °F84%29.99 "Hg
* Reported Dec 11 11:20 AM — Dec 26 11:20 AM, Hürth, Weather by CustomWeather, © 2014

Note: Actual official high and low records may vary slightly from our data, if they occured in-between our weather recording intervals... More about our weather records

Advertising

Hürth weather history for previous 24 hours

 ConditionsComfort  
Time TempWeatherWind HumidityBarometerVisibility
11:20 AM
Dec 26
39 °FScattered clouds.10 mph93%30.39 "HgN/A
10:20 AM37 °FScattered clouds.9 mph93%30.39 "HgN/A
9:20 AM36 °FBroken clouds.6 mph93%30.39 "HgN/A
8:20 AM36 °FPartly cloudy.5 mph100%30.39 "Hg5 mi
7:20 AM37 °FPartly cloudy.7 mph93%30.39 "HgN/A
6:20 AM36 °FPartly cloudy.7 mph93%30.39 "HgN/A
5:20 AM37 °FPartly cloudy.7 mph93%30.39 "HgN/A
4:20 AM36 °FPassing clouds.8 mph93%30.39 "HgN/A
3:20 AM36 °FPassing clouds.8 mph93%30.39 "HgN/A
2:20 AM37 °FPassing clouds.8 mph87%30.36 "HgN/A
1:20 AM37 °FPartly cloudy.8 mph93%30.36 "HgN/A
12:20 AM37 °FPassing clouds.7 mph93%30.36 "HgN/A
11:20 PM
Dec 25
36 °FPassing clouds.7 mph93%30.36 "HgN/A
10:20 PM36 °FPassing clouds.7 mph93%30.36 "HgN/A
9:20 PM37 °FPassing clouds.7 mph93%30.33 "HgN/A
8:20 PM39 °FPartly cloudy.6 mph87%30.33 "HgN/A
7:20 PM37 °FPartly cloudy.6 mph93%30.30 "HgN/A
6:20 PM39 °FPartly cloudy.9 mph87%30.30 "HgN/A
5:20 PM39 °FPartly cloudy.8 mph93%30.27 "HgN/A
4:20 PM39 °FBroken clouds.9 mph93%30.27 "HgN/A
3:20 PM36 °FRain showers. Broken clouds.9 mph100%30.27 "Hg2 mi
2:57 PM43 °FSprinkles. Partly sunny.14 mph81%30.27 "Hg2 mi
2:20 PM43 °FBroken clouds.14 mph81%30.24 "HgN/A
1:20 PM43 °FBroken clouds.15 mph81%30.24 "HgN/A
12:20 PM43 °FBroken clouds.15 mph81%30.24 "HgN/A
Weather by CustomWeather, © 2014

See weather overviewHow to use our weather pages